This is the latest recevied weather packets stored in our database for station/object EA1FBN. If no packets are shown the sender has not sent any weather packets the latest 10 day(s).
| Time | Temp. | Humidity | Pressure | Rain* | Wind** | Luminosity | Snow |
|---|---|---|---|---|---|---|---|
| 1777813819 | 12.78° C | 73% | 1012.9 hPa | 0 mm | - | - | - |
| 1777813519 | 14.44° C | 70% | 1012.9 hPa | 0 mm | - | - | - |
| 1777813219 | 15.56° C | 69% | 1012.7 hPa | 0 mm | - | - | - |
| 1777812919 | 15.56° C | 72% | 1012.6 hPa | 0 mm | - | - | - |
| 1777812619 | 15° C | 72% | 1012.5 hPa | 0 mm | - | - | - |
| 1777812319 | 15° C | 72% | 1012.5 hPa | 0 mm | - | - | - |
| 1777812019 | 15° C | 72% | 1012.5 hPa | 0 mm | - | - | - |
| 1777811719 | 15° C | 71% | 1012.6 hPa | 0 mm | - | - | - |
| 1777811419 | 15.56° C | 71% | 1012.8 hPa | 0 mm | - | - | - |
| 1777811119 | 15.56° C | 70% | 1012.8 hPa | 0 mm | - | - | - |
| 1777810819 | 15.56° C | 69% | 1012.9 hPa | 0 mm | - | - | - |
| 1777810519 | 15.56° C | 71% | 1012.8 hPa | 0 mm | - | - | - |
| 1777810219 | 15.56° C | 71% | 1012.8 hPa | 0 mm | - | - | - |
| 1777809919 | 15° C | 71% | 1012.8 hPa | 0 mm | - | - | - |
| 1777809619 | 15° C | 70% | 1013.1 hPa | 0 mm | - | - | - |
| 1777809319 | 15° C | 72% | 1013.1 hPa | 0 mm | - | - | - |
| 1777809019 | 15° C | 72% | 1013.2 hPa | 0.25 mm | - | - | - |
| 1777808719 | 14.44° C | 72% | 1013.2 hPa | 0.25 mm | - | - | - |
| 1777808419 | 14.44° C | 74% | 1013.3 hPa | 0.25 mm | - | - | - |
| 1777808119 | 14.44° C | 74% | 1013.4 hPa | 0.25 mm | - | - | - |
| 1777807819 | 13.89° C | 74% | 1013.6 hPa | 0.25 mm | - | - | - |
| 1777807519 | 13.89° C | 73% | 1013.6 hPa | 0.25 mm | - | - | - |
| 1777807219 | 13.89° C | 73% | 1013.7 hPa | 0.25 mm | - | - | - |
| 1777806919 | 14.44° C | 72% | 1013.7 hPa | 0.25 mm | - | - | - |
| 1777806619 | 14.44° C | 73% | 1013.7 hPa | 0.25 mm | - | - | - |
* Rain latest hour (hover to see other rain measurements)
** Current wind speed in m/s (hover to see current wind gust speed)